Tracking 18980 objects as of 19-Feb-2018
HD Live streaming from Space Station
objects crossing your sky now

FENGYUN 1C DEB

Track FENGYUN 1C DEB now!
10-day predictions


NORAD ID: 33603
Int'l Code: 1999-025DCL
Perigee: 490.9 km
Apogee: 840.3 km
Inclination: 98.9 °
Period: 97.9 minutes
Semi major axis: 7036 km
RCS: 0.0056 m2 (small)
Launch date: May 10, 1999
Source: People's Republic of China (PRC)
Launch site: Taiyaun Space Center, China (TSC)

Note: This is SATELLITE DEBRIS
aabbcc
Your satellite tracking list
Your tracking list is empty




NASA's NSSDC Master Catalog

Two Line Element Set (TLE):
1 33603U 99025DCL 18048.19727796 +.00000256 +00000-0 +34257-4 0  9997
2 33603 098.8760 054.8360 0248266 013.4140 347.3506 14.70821383568208
Source of the keplerian elements: AFSPC